Weather History for KHRT - January, 2013

Change the Weather History Date:

Thursday, January 31, 2013

  Actual Average Record
Temperature  
Mean Temperature 48 °F -  
Max Temperature 58 °F - - ()
Min Temperature 37 °F - - ()
Degree Days  
Heating Degree Days 18    
Moisture  
Dew Point 34 °F    
Average Humidity 59    
Maximum Humidity 91    
Minimum Humidity 38    
Precipitation  
Precipitation 0.00 in - - ()
Sea Level Pressure  
Sea Level Pressure 30.21 in    
Wind  
Wind Speed 11 mph (NNW)    
Max Wind Speed 20 mph    
Max Gust Speed 24 mph    
Visibility 10 miles    
Events Rain    
T = Trace of Precipitation, MM = Missing Value Source: NWS Daily Summary

Daily Weather History Graph

Daily Weather History Graph

Search for Another Location

Airport or City:

Trip Planner

Search our weather history database for the weather conditions in past years. The results will help you decide how hot, cold, wet, or windy it might be!

Date:

Astronomy

Jan. 31, 2013 Rise Set
Actual Time 6:38 AM CST 5:22 PM CST
Civil Twilight 6:12 AM CST 5:47 PM CST
Nautical Twilight 5:44 AM CST 6:16 PM CST
Astronomical Twilight 5:15 AM CST 6:45 PM CST
Moon 9:58 PM CST (1/31) 9:00 AM CST (1/31)
Length of Visible Light 11h 34m
Length of Day
10h 44m
Waning Gibbous, 79% of the Moon is Illuminated
Jan 31
Waning Gibbous
Feb 3
Last Quarter
Feb 10
New
Feb 17
First Quarter
Feb 25
Full

Hourly Weather History & Observations

Time (CST) Temp. Windchill Dew Point Humidity Pressure Visibility Wind Dir Wind Speed Gust Speed Precip Events Conditions
12:00 AM 46.4 °F 40.7 °F 39.2 °F 76% 30.09 in 10.0 mi NNW 12.7 mph - N/A   Clear
12:06 AM 46.4 °F 40.1 °F 37.4 °F 71% 30.09 in 10.0 mi NW 15.0 mph 21.9 mph N/A   Light Drizzle
12:25 AM 44.6 °F 37.2 °F 37.4 °F 76% 30.10 in 10.0 mi NW 17.3 mph 23.0 mph N/A   Clear
12:55 AM 44.2 °F 37.6 °F 35.2 °F 71% 30.12 in 10.0 mi NNW 13.8 mph 21.9 mph 0.00 in   Clear
1:55 AM 42.8 °F 37.5 °F 34.2 °F 72% 30.12 in 10.0 mi NW 9.2 mph - N/A   Clear
2:55 AM 41.5 °F 37.8 °F 33.6 °F 73% 30.15 in 10.0 mi NW 5.8 mph - N/A   Clear
3:55 AM 39.9 °F 35.1 °F 33.6 °F 78% 30.15 in 10.0 mi NNW 6.9 mph - N/A   Clear
4:55 AM 38.8 °F 35.4 °F 33.1 °F 80% 30.16 in 10.0 mi NW 4.6 mph - N/A   Clear
5:55 AM 38.3 °F 35.9 °F 32.7 °F 80% 30.18 in 10.0 mi WNW 3.5 mph - N/A   Clear
6:55 AM 37.4 °F 33.8 °F 32.7 °F 83% 30.20 in 10.0 mi WNW 4.6 mph - N/A   Clear
7:55 AM 41.2 °F 37.3 °F 34.5 °F 77% 30.23 in 10.0 mi NW 5.8 mph - N/A   Clear
8:55 AM 46.2 °F 41.7 °F 35.6 °F 66% 30.25 in 10.0 mi NW 9.2 mph - N/A   Clear
9:59 AM 51.8 °F - 32.0 °F 47% 30.27 in 7.0 mi NNW 19.6 mph 23.0 mph N/A   Clear
10:55 AM 51.8 °F - 32.0 °F 47% 30.27 in 7.0 mi NNW 13.8 mph 23.0 mph N/A   Clear
11:58 AM 55.4 °F - 33.3 °F 43% 30.24 in 10.0 mi North 13.8 mph 23.0 mph N/A   Clear
12:45 PM 57.2 °F - 32.0 °F 38% 30.22 in 10.0 mi NNW 18.4 mph 24.2 mph N/A   Clear
12:58 PM 57.2 °F - 33.1 °F 40% 30.22 in 10.0 mi North 18.4 mph 23.0 mph N/A   Clear
1:52 PM 57.2 °F - 32.0 °F 38% 30.20 in 10.0 mi North 9.2 mph - N/A   Light Drizzle
1:58 PM 57.6 °F - 33.8 °F 41% 30.20 in 10.0 mi NNE 13.8 mph - 0.00 in   Light Drizzle
2:01 PM 57.2 °F - 32.0 °F 38% 30.20 in 10.0 mi NNE 12.7 mph 17.3 mph N/A   Clear
2:58 PM 58.1 °F - 34.0 °F 40% 30.20 in 10.0 mi North 11.5 mph - 0.00 in   Clear
3:54 PM 57.2 °F - 33.8 °F 41% 30.21 in 10.0 mi North 6.9 mph - N/A Rain Light Rain
3:58 PM 57.6 °F - 33.6 °F 41% 30.21 in 10.0 mi NNE 10.4 mph - 0.00 in Rain Light Rain
4:03 PM 57.2 °F - 33.8 °F 41% 30.21 in 10.0 mi North 9.2 mph - N/A   Clear
4:20 PM 57.2 °F - 32.0 °F 38% 30.21 in 10.0 mi North 8.1 mph - N/A   Light Drizzle
4:25 PM 57.2 °F - 32.0 °F 38% 30.21 in 10.0 mi NNW 8.1 mph - N/A   Clear
4:58 PM 55.9 °F - 32.0 °F 40% 30.22 in 10.0 mi NW 5.8 mph - 0.00 in   Clear
5:58 PM 53.2 °F - 33.3 °F 47% 30.24 in 10.0 mi NW 6.9 mph - N/A   Clear
6:58 PM 50.9 °F - 32.4 °F 49% 30.25 in 10.0 mi West 3.5 mph - N/A   Clear
7:58 PM 44.4 °F - 35.6 °F 71% 30.27 in 10.0 mi NE 2.3 mph - N/A   Clear
8:58 PM 43.0 °F - 39.4 °F 87% 30.28 in 10.0 mi Calm Calm - N/A   Clear
9:58 PM 40.8 °F 38.8 °F 38.3 °F 91% 30.28 in 10.0 mi NNW 3.5 mph - N/A   Clear
10:58 PM 46.4 °F 42.9 °F 39.9 °F 78% 30.30 in 10.0 mi NW 6.9 mph - N/A   Clear
11:58 PM 47.3 °F - 40.6 °F 78% 30.32 in 10.0 mi NW 6.9 mph - N/A   Clear